Clines Corner, NM

1:12 AM MDT on March 23, 2017 (GMT -0600)
Clines Corner

Weather History for KCQC - November, 2012

Change the Weather History Date:

Thursday, November 1, 2012

  Actual Average (KSAF) Record (KSAF)
Temperature  
Mean Temperature 54 °F -  
Max Temperature 70 °F 63 °F 73 °F (2008)
Min Temperature 39 °F 34 °F 23 °F (1977)
Degree Days  
Heating Degree Days 11    
Growing Degree Days 4 (Base 50)    
Moisture  
Dew Point 8 °F    
Average Humidity 18    
Maximum Humidity 31    
Minimum Humidity 9    
Precipitation  
Precipitation 0.00 in - - ()
Sea Level Pressure  
Sea Level Pressure 30.01 in    
Wind  
Wind Speed 8 mph (West)    
Max Wind Speed 22 mph    
Max Gust Speed 30 mph    
Visibility 10 miles    
Events      
Averages and records for this station are not official NWS values.
T = Trace of Precipitation, MM = Missing Value Source: NWS Daily Summary

Daily Weather History Graph

Daily Weather History Graph

Search for Another Location

Airport or City:

Trip Planner

Search our weather history database for the weather conditions in past years. The results will help you decide how hot, cold, wet, or windy it might be!

Date:

Astronomy

Nov. 01, 2012 Rise Set
Actual Time 7:24 AM MDT 6:07 PM MDT
Civil Twilight 6:57 AM MDT 6:33 PM MDT
Nautical Twilight 6:27 AM MDT 7:03 PM MDT
Astronomical Twilight 5:58 AM MDT 7:33 PM MDT
Moon 8:11 PM MDT (11/1) 9:54 AM MDT (11/1)
Length of Visible Light 11h 36m
Length of Day
10h 43m
Waning Gibbous, 92% of the Moon is Illuminated
Nov 1
Waning Gibbous
Nov 6
Last Quarter
Nov 13
New
Nov 20
First Quarter
Nov 28
Full

Hourly Weather History & Observations

Time (MDT) Temp. Windchill Dew Point Humidity Pressure Visibility Wind Dir Wind Speed Gust Speed Precip Events Conditions
12:53 AM 51.1 °F - 8.1 °F 18% 30.03 in 10.0 mi Calm Calm - N/A   Clear
1:53 AM 51.1 °F - 7.0 °F 17% 30.02 in 10.0 mi SW 3.5 mph - N/A   Clear
2:53 AM 43.0 °F 38.2 °F 8.1 °F 24% 30.05 in 10.0 mi West 8.1 mph - N/A   Clear
3:53 AM 42.1 °F 37.7 °F 8.1 °F 25% 30.04 in 10.0 mi West 6.9 mph - N/A   Clear
4:53 AM 44.1 °F 39.5 °F 9.0 °F 24% 30.03 in 10.0 mi NW 8.1 mph - N/A   Clear
5:53 AM 44.1 °F 40.1 °F 9.0 °F 24% 30.06 in 10.0 mi NW 6.9 mph - N/A   Clear
6:53 AM 42.1 °F 37.7 °F 9.0 °F 26% 30.12 in 10.0 mi West 6.9 mph - N/A   Clear
7:53 AM 39.9 °F 34.5 °F 10.9 °F 31% 30.12 in 10.0 mi West 8.1 mph - N/A   Clear
8:53 AM 53.1 °F - 14.0 °F 21% 30.07 in 10.0 mi WNW 4.6 mph - N/A   Clear
9:53 AM 61.0 °F - 14.0 °F 16% 30.04 in 10.0 mi West 8.1 mph - N/A   Clear
10:53 AM 64.0 °F - 14.0 °F 14% 30.04 in 10.0 mi West 9.2 mph - N/A   Clear
11:53 AM 66.0 °F - 12.9 °F 13% 30.01 in 10.0 mi WSW 11.5 mph - N/A   Clear
12:53 PM 68.0 °F - 12.0 °F 11% 29.97 in 10.0 mi West 11.5 mph - N/A   Clear
1:53 PM 69.1 °F - 10.0 °F 10% 29.94 in 10.0 mi SW 12.7 mph 18.4 mph N/A   Clear
2:53 PM 69.1 °F - 10.0 °F 10% 29.94 in 10.0 mi West 21.9 mph 29.9 mph N/A   Clear
3:53 PM 68.0 °F - 6.1 °F 9% 29.94 in 10.0 mi West 20.7 mph 26.5 mph N/A   Clear
4:53 PM 64.9 °F - 5.0 °F 9% 29.94 in 10.0 mi West 16.1 mph - N/A   Clear
5:53 PM 60.1 °F - 3.0 °F 10% 29.97 in 10.0 mi West 12.7 mph - N/A   Clear
6:53 PM 50.0 °F - 3.0 °F 15% 30.03 in 10.0 mi WSW 11.5 mph - N/A   Clear
7:53 PM 46.9 °F - 3.0 °F 16% 30.05 in 10.0 mi WSW 11.5 mph - N/A   Clear
8:53 PM 46.9 °F - 3.9 °F 17% 29.98 in 10.0 mi WSW 13.8 mph - N/A   Clear
9:53 PM 46.0 °F 40.2 °F 5.0 °F 19% 29.96 in 10.0 mi WSW 12.7 mph - N/A   Clear
10:53 PM 44.1 °F 37.7 °F 6.1 °F 21% 29.96 in 10.0 mi WSW 12.7 mph - N/A   Clear
11:53 PM 44.1 °F 38.1 °F 7.0 °F 22% 29.94 in 10.0 mi WSW 11.5 mph - N/A   Clear